[[[{"header":{"parameterUnit":"kt","parameterCategory":2,"dx":1,"dy":1,"la1":30.253999710083008,"la2":30.299108505249023,"lo1":-89.0895004272461,"lo2":-89.04439544677734,"nx":28,"ny":28,"refTime":"2022-09-20T09:00:00:Z","depth":0,"parameterNumber":1,"parameterNumberName":"U-component_of_WINDS"},"data":[4.9973,5.01,5.0107,5.0255,5.0286,5.0388,5.0427,5.0477,5.0519,5.0642,5.0714,5.0733,5.0776,5.0863,5.0941,5.0948,5.0979,5.1021,5.1021,5.083,5.0804,5.0779,5.0747,5.1029,5.1029,5.1216,5.1218,5.1219,4.9834,4.9866,4.9947,5.0028,5.0097,5.0061,5.0123,5.0182,5.0275,5.0327,5.0398,5.0507,5.0594,5.0623,5.0707,5.0767,5.0753,5.0789,5.0783,5.079,5.0587,5.0554,5.0798,5.0798,5.0798,5.0798,5.0798,5.0798,4.9583,4.966,4.9712,4.9799,4.9842,4.9896,4.997,4.9991,5.0069,5.0157,5.0148,5.0253,5.0306,5.0409,5.0445,5.0526,5.0487,5.0527,5.0537,5.0546,5.0555,5.0282,5.0541,5.0541,5.054,5.054,5.0539,0,4.94,4.9399,4.9476,4.9555,4.9619,4.968,4.9737,4.9784,4.9782,4.9847,4.9942,4.9997,5.0106,5.0194,5.0274,5.0302,5.0268,5.0267,5.0294,5.0297,5.0291,5.0293,4.996,5.0258,5.0255,5.0254,5.0252,5.0251,4.9144,4.9233,4.929,4.9343,4.9375,4.9462,4.9514,4.9506,4.9562,4.9631,4.9699,4.9788,4.9858,5.0009,5.003,5.0111,5.0095,5.0208,5.0106,5.0108,5.0093,5.0087,5.0095,5.0226,5.0229,5.0232,5.0234,0,4.9,4.9006,4.9145,4.9192,4.9206,4.93,4.9339,4.9415,4.9426,4.9532,4.9557,4.9573,4.9665,4.9668,4.9775,4.9773,4.9928,4.9911,4.9909,4.9905,5.0005,4.9994,5.0332,5.0375,5.0086,5.0089,5.0091,0,4.8783,4.89,4.8902,4.8983,4.9113,4.91,4.9229,4.925,4.9294,4.9377,4.934,4.9419,4.941,4.949,4.9488,4.9615,4.9636,4.9641,4.9638,4.9643,4.9642,4.9669,4.9654,4.9632,4.963,4.9629,4.9627,0,4.8553,4.8691,4.8822,4.8854,4.8914,4.8976,4.9004,4.9052,4.9103,4.917,4.9203,4.9282,4.9325,4.9387,4.9383,4.9314,4.9539,4.9443,4.9544,4.9544,4.9591,4.9587,4.9889,4.9625,4.9625,4.9624,4.9623,0,4.8376,4.8444,4.8633,4.8681,4.8717,4.8804,4.888,4.8954,4.9008,4.9012,4.9064,4.9037,4.9149,4.9054,4.9208,4.9119,4.9164,4.9179,4.9186,4.9193,4.9085,4.9252,4.9541,4.957,4.9205,4.9201,4.9198,0,4.8111,4.8303,4.8291,4.8472,4.856,4.8509,4.8605,4.8653,4.8666,4.8742,4.8756,4.8844,4.8773,4.88,4.8877,4.8894,4.901,4.8879,4.8988,4.8992,4.8973,4.924,4.928,4.9478,4.9154,4.9158,4.9162,0,4.7904,4.7974,4.8007,4.8042,4.8102,4.8176,4.8287,4.837,4.8421,4.848,4.8571,4.8695,4.8646,4.8692,4.8678,4.8757,4.8931,4.8693,4.8694,4.8735,4.9132,4.917,4.9203,4.8905,4.891,4.8914,4.9126,0,4.7633,4.7729,4.7819,4.7897,4.7954,4.8067,4.8067,4.8127,4.8107,4.8116,4.8252,4.829,4.8375,4.8413,4.8395,4.8576,4.8545,4.8491,4.8395,4.8572,4.8641,4.867,4.8292,4.8289,4.8287,4.8285,0,0,4.7376,4.7512,4.7495,4.7601,4.7647,4.7591,4.7711,4.775,4.783,4.7863,4.7811,4.799,4.8024,4.8188,4.8243,4.8278,4.8309,4.8247,4.8488,4.8511,4.8532,4.8607,4.8637,4.8281,4.828,4.8279,4.8278,0,4.7275,4.7311,4.7429,4.7469,4.7526,4.7529,4.7558,4.7604,4.7615,4.7748,4.7698,4.7779,4.7923,4.7964,4.8004,4.8229,4.8185,4.8255,4.8375,4.8465,4.8491,4.8513,4.8592,4.8621,4.8272,4.8273,4.8273,0,4.707,4.7104,4.7161,4.7264,4.73,4.7392,4.7292,4.7394,4.7461,4.7393,4.7524,4.7546,4.7601,4.7756,4.7826,4.7779,4.8072,4.798,4.7995,4.8002,4.8089,4.812,4.8147,4.7782,4.778,4.7779,0,0,4.6983,4.7071,4.7103,4.7242,4.7268,4.7274,4.7323,4.7307,4.7357,4.7377,4.7403,4.7454,4.7537,4.7592,4.7669,4.7841,4.785,4.792,4.7943,4.7962,4.7979,4.8071,4.8101,4.7772,4.7772,4.7772,0,0,4.6941,4.6982,4.6953,4.7113,4.7163,4.7202,4.7287,4.7251,4.7321,4.7307,4.7285,4.7297,4.7443,4.7465,4.7379,4.7635,4.7541,4.7561,4.7614,4.7643,4.7666,4.7656,4.728,0,0,0,0,0,4.6836,4.6977,4.695,4.6976,4.7105,4.7218,4.7234,4.7219,4.7152,4.722,4.7235,4.7186,4.7414,4.7337,4.7364,4.7459,4.7689,4.7704,4.7717,4.7826,4.7857,4.7883,0,0,0,0,0,0,4.6846,4.6879,4.6946,4.6992,4.702,4.7213,4.7096,4.7096,4.7144,4.7133,4.7185,4.7187,4.7176,4.7322,4.7347,4.7438,4.7272,4.7695,4.7707,4.7718,4.7837,4.7862,4.7883,0,0,0,0,0,4.6854,4.688,4.709,4.699,4.7015,4.7028,4.7091,4.709,4.7127,4.715,4.7151,4.711,4.7179,4.7199,4.7337,4.7427,4.7255,4.7264,4.7703,4.7713,4.7721,4.7849,0,0,0,0,0,0,4.686,4.688,4.7095,4.7102,4.6934,4.7016,4.7029,4.7084,4.714,4.7143,4.7074,4.7064,4.7183,4.7197,4.7213,4.7424,4.7241,4.725,4.7256,4.771,4.7718,4.7725,0,0,0,0,0,0,4.6866,4.6887,4.7099,4.703,4.7029,4.7006,4.7017,4.7132,4.7142,4.7061,4.7054,4.7069,4.716,4.7198,4.7209,4.7389,4.723,4.7239,4.7245,4.7249,4.7717,4.7723,0,0,0,0,0,0,4.6874,4.6892,4.7028,4.7027,4.7026,4.7103,4.7107,4.724,4.7082,4.7059,4.7068,4.7061,4.7162,4.7173,4.7207,4.7382,4.7387,4.7231,4.7237,4.7241,4.7244,0,0,0,0,0,0,0,4.6881,4.6766,4.7053,4.7025,4.7023,4.7167,4.7169,4.7171,4.7081,4.7075,4.7069,4.7064,4.7179,4.7189,4.7199,4.7377,0,0,4.723,4.7234,0,0,0,0,0,0,0,0,4.6758,4.6764,4.7054,4.7055,4.7057,4.7167,4.7169,4.7171,4.708,4.7075,4.7071,4.7066,4.7182,4.719,4.7198,0,0,0,0,0,0,0,0,0,0,0,0,0,0,0,4.7054,4.7055,0,4.7168,4.7169,4.717,4.7079,4.7075,4.7072,4.7068,4.7184,4.7191,4.7197,0,0,0,0,0,0,0,0,0,0,0,0,0,0,0,0,0,0,0,0,0,0,0,0,0,0,0,0,0,0,0,0,0,0,0,0,0,0,0,0,0,0,0,0,0,0,0,0,0,0,0,0,0,0,0,0,0,0,0,0,0,0,0,0,0,0,0,0,0]}],[{"header":{"parameterUnit":"kt","parameterCategory":2,"dx":1,"dy":1,"la1":30.253999710083008,"la2":30.299108505249023,"lo1":-89.0895004272461,"lo2":-89.04439544677734,"nx":28,"ny":28,"refTime":"2022-09-20T09:00:00:Z","depth":0,"parameterNumber":2,"parameterNumberName":"V-component_of_WINDS"},"data":[-2.5508,-2.5568,-2.5602,-2.5686,-2.5731,-2.5795,-2.5828,-2.5875,-2.5921,-2.6002,-2.6054,-2.6094,-2.6154,-2.6225,-2.6284,-2.6301,-2.6323,-2.6321,-2.6341,-2.6323,-2.6323,-2.6323,-2.631,-2.6325,-2.6325,-2.6354,-2.6354,-2.6354,-2.5493,-2.5537,-2.5592,-2.5667,-2.5714,-2.5737,-2.58,-2.5837,-2.5894,-2.5951,-2.6005,-2.6078,-2.6141,-2.6203,-2.627,-2.6299,-2.6314,-2.6315,-2.6313,-2.6322,-2.6304,-2.6291,-2.6302,-2.6302,-2.6302,-2.6302,-2.6302,-2.6302,-2.5474,-2.5509,-2.5574,-2.5634,-2.5681,-2.5731,-2.5771,-2.5819,-2.5873,-2.5946,-2.5976,-2.6041,-2.6105,-2.6201,-2.6242,-2.6294,-2.6299,-2.6311,-2.6313,-2.6315,-2.6313,-2.6266,-2.6307,-2.6307,-2.6307,-2.6307,-2.6307,0,-2.547,-2.5496,-2.5551,-2.5615,-2.566,-2.5714,-2.5769,-2.5794,-2.586,-2.5902,-2.5966,-2.6008,-2.6092,-2.6156,-2.6226,-2.6266,-2.6295,-2.6301,-2.6309,-2.6295,-2.6274,-2.6285,-2.6255,-2.63,-2.63,-2.63,-2.63,-2.63,-2.5453,-2.549,-2.5575,-2.5608,-2.5647,-2.57,-2.5739,-2.5795,-2.5834,-2.591,-2.5938,-2.6003,-2.6058,-2.6154,-2.6211,-2.6274,-2.6288,-2.6302,-2.6298,-2.6283,-2.6288,-2.6285,-2.6289,-2.6301,-2.6301,-2.63,-2.63,0,-2.5441,-2.5495,-2.5563,-2.5644,-2.5665,-2.5701,-2.577,-2.5807,-2.585,-2.5908,-2.5924,-2.5992,-2.6054,-2.6109,-2.6191,-2.6217,-2.6278,-2.6291,-2.6256,-2.6262,-2.6279,-2.6276,-2.6326,-2.6336,-2.6321,-2.6321,-2.6321,0,-2.5447,-2.5494,-2.5573,-2.5609,-2.5663,-2.5717,-2.5769,-2.5811,-2.5867,-2.5912,-2.5953,-2.5995,-2.6059,-2.611,-2.6149,-2.6209,-2.6224,-2.6248,-2.6258,-2.6244,-2.6241,-2.6265,-2.6264,-2.6279,-2.6279,-2.6279,-2.6279,0,-2.5421,-2.5518,-2.5577,-2.5608,-2.5698,-2.5725,-2.5764,-2.5827,-2.5864,-2.5922,-2.5947,-2.6011,-2.6046,-2.6094,-2.6144,-2.614,-2.6219,-2.6223,-2.6243,-2.6242,-2.6257,-2.6255,-2.6286,-2.6278,-2.6278,-2.6278,-2.6278,0,-2.5435,-2.5492,-2.557,-2.5646,-2.5669,-2.5709,-2.5775,-2.5821,-2.5884,-2.5912,-2.5958,-2.5991,-2.6048,-2.6048,-2.6127,-2.6106,-2.6138,-2.6167,-2.6169,-2.6177,-2.6175,-2.6184,-2.6209,-2.6213,-2.6185,-2.6184,-2.6184,0,-2.539,-2.5483,-2.5531,-2.5604,-2.5655,-2.5697,-2.5742,-2.5796,-2.5837,-2.5886,-2.5931,-2.5986,-2.5998,-2.6023,-2.6055,-2.6103,-2.613,-2.6102,-2.6172,-2.6174,-2.6153,-2.6177,-2.6166,-2.6198,-2.6174,-2.6175,-2.6176,0,-2.5361,-2.547,-2.548,-2.5517,-2.5598,-2.5641,-2.5692,-2.5759,-2.5789,-2.5846,-2.5891,-2.597,-2.5983,-2.6023,-2.6057,-2.6087,-2.6113,-2.6096,-2.6098,-2.6097,-2.6174,-2.6164,-2.6169,-2.613,-2.6131,-2.6132,-2.6169,0,-2.5369,-2.5423,-2.5451,-2.5532,-2.5573,-2.5622,-2.568,-2.5716,-2.5745,-2.5786,-2.5853,-2.5912,-2.598,-2.6,-2.6028,-2.6079,-2.6079,-2.6091,-2.6094,-2.611,-2.6123,-2.6129,-2.607,-2.607,-2.607,-2.6071,0,0,-2.5312,-2.539,-2.544,-2.5492,-2.553,-2.5573,-2.562,-2.5662,-2.5745,-2.5771,-2.5774,-2.5893,-2.5941,-2.6016,-2.6025,-2.6053,-2.6067,-2.6059,-2.6102,-2.6105,-2.6108,-2.6122,-2.6127,-2.6071,-2.6071,-2.6072,-2.6072,0,-2.5326,-2.5374,-2.542,-2.5466,-2.5535,-2.5577,-2.5588,-2.5664,-2.5693,-2.5758,-2.5792,-2.5839,-2.5933,-2.5979,-2.6015,-2.6052,-2.6075,-2.6069,-2.6069,-2.6104,-2.6106,-2.6109,-2.6123,-2.6127,-2.6073,-2.6073,-2.6073,0,-2.5308,-2.5365,-2.5393,-2.5481,-2.5527,-2.5578,-2.5596,-2.5649,-2.5688,-2.5731,-2.5795,-2.5836,-2.5902,-2.5965,-2.5995,-2.5998,-2.6079,-2.6063,-2.6063,-2.6067,-2.6103,-2.6106,-2.6109,-2.6071,-2.6071,-2.6071,0,0,-2.5313,-2.5363,-2.544,-2.5489,-2.5515,-2.5577,-2.561,-2.5642,-2.57,-2.5723,-2.5775,-2.5831,-2.5887,-2.5922,-2.5977,-2.6038,-2.6056,-2.6061,-2.6061,-2.6061,-2.6065,-2.6101,-2.6104,-2.607,-2.607,-2.607,0,0,-2.5315,-2.5407,-2.5425,-2.5488,-2.5542,-2.5622,-2.5649,-2.5673,-2.5728,-2.5729,-2.5784,-2.5802,-2.5862,-2.59,-2.5881,-2.5979,-2.5981,-2.5987,-2.5952,-2.5952,-2.5953,-2.5942,-2.5907,0,0,0,0,0,-2.5359,-2.5395,-2.5411,-2.543,-2.5542,-2.5613,-2.5628,-2.5674,-2.5675,-2.5696,-2.5743,-2.5765,-2.5901,-2.5886,-2.5904,-2.5924,-2.6058,-2.606,-2.6062,-2.6031,-2.6032,-2.6032,0,0,0,0,0,0,-2.5367,-2.539,-2.541,-2.549,-2.5515,-2.5612,-2.5624,-2.5637,-2.5674,-2.5677,-2.5756,-2.5768,-2.5809,-2.588,-2.5895,-2.5913,-2.5902,-2.6059,-2.6061,-2.6062,-2.6031,-2.6032,-2.6032,0,0,0,0,0,-2.5374,-2.5392,-2.5559,-2.549,-2.5512,-2.5583,-2.5623,-2.5634,-2.5663,-2.5737,-2.575,-2.5695,-2.5808,-2.5825,-2.5889,-2.5905,-2.5891,-2.5897,-2.606,-2.6061,-2.6063,-2.6032,0,0,0,0,0,0,-2.5378,-2.5404,-2.5565,-2.5573,-2.5479,-2.5578,-2.5595,-2.5631,-2.5721,-2.5735,-2.5679,-2.568,-2.5808,-2.5821,-2.5833,-2.59,-2.5882,-2.5888,-2.5892,-2.6061,-2.6062,-2.6063,0,0,0,0,0,0,-2.5394,-2.541,-2.5569,-2.5553,-2.5561,-2.5574,-2.5589,-2.565,-2.5722,-2.5659,-2.5663,-2.5678,-2.5789,-2.5818,-2.5828,-2.5922,-2.5876,-2.5881,-2.5885,-2.5888,-2.6062,-2.6063,0,0,0,0,0,0,-2.5402,-2.5416,-2.5552,-2.5557,-2.5563,-2.5663,-2.5629,-2.5741,-2.5708,-2.5654,-2.5707,-2.5706,-2.5786,-2.5797,-2.5825,-2.5914,-2.592,-2.5876,-2.588,-2.5883,-2.5884,0,0,0,0,0,0,0,-2.5408,-2.5301,-2.5514,-2.556,-2.5566,-2.5652,-2.5654,-2.5657,-2.5708,-2.5707,-2.5707,-2.5706,-2.5844,-2.585,-2.5857,-2.5907,0,0,-2.5876,-2.5878,0,0,0,0,0,0,0,0,-2.5296,-2.53,-2.5514,-2.5516,-2.5518,-2.5652,-2.5654,-2.5656,-2.5708,-2.5708,-2.5707,-2.5707,-2.5846,-2.5851,-2.5856,0,0,0,0,0,0,0,0,0,0,0,0,0,0,0,-2.5515,-2.5516,0,-2.5653,-2.5654,-2.5656,-2.5708,-2.5708,-2.5707,-2.5707,-2.5847,-2.5851,-2.5856,0,0,0,0,0,0,0,0,0,0,0,0,0,0,0,0,0,0,0,0,0,0,0,0,0,0,0,0,0,0,0,0,0,0,0,0,0,0,0,0,0,0,0,0,0,0,0,0,0,0,0,0,0,0,0,0,0,0,0,0,0,0,0,0,0,0,0,0,0]}]]]